Wind_Speed
22 21 22 21 20 20 20 21 20 19 19 18 18 18 16 15 14 14 13 13 12 11 12 12 13 14 15 14 13 13 13 14 15 16 17 18 18 18 18 17 17 17 18 19
25 24 24 22 21 22 21 22 23 21 20 19 19 18 18 16 16 15 15 15 14 14 14 13 14 15 15 15 14 15 15 15 16 17 17 18 18 18 18 18 18 17 18 19
26 26 26 26 24 24 23 23 24 23 22 21 20 19 18 17 17 18 17 16 16 16 16 15 15 16 16 17 17 16 15 16 17 18 19 19 19 18 18 18 18 18 19 20
29 28 28 26 26 26 26 25 26 24 23 22 23 21 19 19 19 19 19 19 19 18 17 17 17 17 18 18 17 17 17 17 19 19 19 19 19 18 18 18 18 18 19 20
31 30 29 27 25 25 25 26 25 24 24 24 22 22 21 20 20 21 21 21 21 20 19 18 18 18 18 19 19 19 19 19 19 20 20 19 19 19 19 19 19 20 20 21
31 31 31 28 26 25 26 26 24 24 26 25 24 23 22 23 22 22 22 21 21 20 20 20 20 20 19 20 20 20 19 20 20 20 20 20 20 20 20 20 20 20 21 22
32 32 31 29 27 26 26 25 24 26 26 25 25 24 24 24 22 22 22 22 21 20 20 21 21 21 20 20 20 21 20 20 20 20 20 21 21 21 21 21 22 22 22 23
33 33 31 29 28 26 26 25 25 26 26 25 25 25 25 25 23 23 24 23 21 21 20 20 21 21 22 22 22 22 21 21 21 21 21 22 22 22 22 22 23 23 23 24
33 33 31 29 28 27 27 27 26 26 27 27 27 27 26 25 24 25 24 22 22 22 21 22 22 22 23 23 22 22 22 22 22 22 22 22 23 23 23 23 24 24 24 25
33 31 29 29 29 29 28 28 27 27 27 26 26 26 27 26 26 26 25 24 23 23 23 22 22 22 23 23 23 23 23 23 24 24 23 23 24 24 24 24 24 25 25 26
32 31 30 29 29 29 27 26 25 26 27 28 27 27 27 27 28 27 25 25 25 23 22 23 22 22 23 24 24 24 24 24 25 25 25 25 25 25 25 26 26 26 26 26
32 32 32 31 30 29 28 26 26 27 27 27 28 29 29 28 27 27 26 25 24 24 23 23 23 23 23 24 25 25 26 26 27 26 25 26 26 26 26 26 26 26 26 27
32 31 30 30 30 29 28 27 27 27 27 27 27 28 29 27 26 25 25 25 25 24 24 25 25 23 23 25 25 26 26 26 26 26 26 26 26 26 26 27 27 27 27 27
28 28 28 28 28 27 27 27 28 28 27 27 28 28 28 27 26 25 24 24 24 24 24 24 24 23 24 24 24 24 24 25 25 26 26 26 27 27 27 27 27 27 28 27
26 26 27 27 27 27 27 27 28 28 26 25 25 24 24 24 24 24 24 24 24 24 24 24 24 24 25 25 24 24 25 26 26 27 27 27 27 27 28 28 29 29 29 28
25 25 26 27 26 25 26 26 26 26 24 24 24 23 22 23 24 24 24 24 24 24 25 25 24 24 24 24 25 26 26 27 28 28 28 29 29 29 29 29 29 29 28 28
24 23 23 24 25 24 23 24 23 22 22 23 23 23 23 23 23 24 24 24 24 25 26 25 25 25 25 26 27 27 28 28 28 28 29 29 30 30 30 29 29 28 28 28
22 22 23 22 22 23 22 22 21 20 19 19 20 20 21 21 22 23 24 24 25 25 25 26 26 26 26 27 27 27 27 27 28 28 29 30 30 30 30 29 29 29 29 28
22 21 20 21 22 22 22 20 19 18 18 19 19 20 20 21 22 23 23 24 24 25 26 26 26 26 26 26 27 27 28 28 28 29 29 29 29 30 29 28 28 28 28 27
20 20 19 20 20 19 19 18 17 18 18 18 18 19 19 20 21 22 23 24 24 25 25 25 25 25 25 25 26 27 27 28 28 28 28 28 28 28 27 27 27 27 27 28
18 18 19 19 19 19 19 18 19 19 19 19 18 18 19 21 22 22 22 22 23 23 23 23 24 24 24 25 25 26 27 27 28 28 27 27 27 26 26 26 27 26 27 28
17 17 17 18 19 19 19 18 18 18 18 18 18 18 19 20 21 21 22 22 22 22 22 23 23 23 24 24 25 25 25 25 26 26 26 26 26 25 25 25 25 26 26 26
16 17 17 17 18 18 18 18 18 17 17 17 18 18 19 19 19 20 21 21 22 22 22 22 22 22 23 23 23 24 24 24 24 24 25 25 25 24 23 24 25 26 26 26
16 16 17 17 18 18 18 18 17 17 17 17 17 17 18 19 19 20 20 20 21 21 21 21 22 22 22 23 23 23 24 24 24 24 25 25 24 23 23 24 25 26 26 27
15 16 17 18 18 18 18 17 17 17 17 16 16 17 17 18 19 19 19 19 20 19 20 20 21 21 22 22 22 23 23 23 24 25 25 24 24 24 25 26 26 27 27 28
15 15 16 16 16 17 17 16 16 16 16 16 15 16 16 16 17 17 18 18 18 18 19 20 20 20 21 21 21 21 22 23 23 23 23 24 25 25 25 26 26 27 27 28
14 15 15 15 15 15 15 15 15 15 15 15 15 16 16 16 16 16 16 16 17 17 18 19 19 20 20 20 20 21 22 22 22 22 22 23 24 24 25 25 26 27 28 28
Wind_Direction
235 234 234 238 241 246 248 247 251 256 258 259 263 269 275 278 277 277 283 288 285 286 289 284 284 283 290 288 287 287 288 290 293 296 299 301 302 300 296 296 291 289 287 285
234 233 235 238 240 243 248 249 252 255 256 255 259 264 269 272 275 280 285 287 289 288 287 286 288 288 290 291 291 290 289 291 291 294 298 300 301 301 302 301 296 292 291 288
234 235 238 238 240 242 244 248 252 257 257 256 260 262 266 268 272 278 282 284 287 288 285 285 285 287 287 290 289 291 292 293 293 296 298 298 299 300 301 301 299 297 297 295
239 238 241 242 242 244 246 247 251 254 257 259 259 260 260 263 268 273 275 278 282 282 283 284 284 284 286 289 291 290 293 294 294 294 296 296 296 297 298 299 299 299 298 296
241 243 245 245 245 245 248 249 252 253 257 260 256 258 259 263 266 271 274 275 277 279 282 284 284 285 285 287 288 289 292 293 294 294 294 294 294 295 296 297 298 298 298 297
243 245 247 249 250 250 249 249 253 255 256 257 257 259 262 263 265 268 271 275 276 277 281 284 285 286 286 285 288 289 291 293 294 294 294 294 294 294 294 295 296 297 298 298
244 247 249 252 253 252 252 253 255 258 257 258 258 260 263 263 266 269 272 274 276 277 281 285 285 285 286 288 288 289 289 291 292 293 293 293 294 294 294 294 295 296 297 298
244 247 250 253 253 255 257 258 258 257 256 255 257 261 264 264 264 267 272 274 275 278 280 283 284 284 285 286 286 287 289 290 291 291 293 294 294 294 294 294 295 296 296 296
245 248 251 252 251 253 256 257 258 257 257 257 260 262 265 267 268 269 271 274 275 276 278 279 280 280 282 284 285 287 288 289 290 291 293 293 294 294 294 294 295 296 296 296
246 248 248 250 252 253 256 257 258 257 258 260 261 262 263 265 268 269 270 272 274 275 276 277 279 280 281 282 284 285 286 288 289 290 290 292 292 294 294 294 295 296 297 297
244 246 247 247 250 252 254 257 258 258 261 262 260 262 263 264 266 267 269 270 272 275 278 279 276 277 278 280 283 285 286 287 288 288 289 289 291 292 293 294 295 296 297 297
244 246 247 248 249 252 254 256 258 259 259 260 262 262 263 265 266 266 265 267 272 276 278 280 280 278 278 280 282 284 286 287 287 289 290 290 290 291 293 293 293 294 295 297
248 246 247 249 250 253 254 255 257 258 259 261 264 265 265 265 265 266 266 268 273 277 279 281 282 280 280 282 283 284 285 287 287 289 290 290 290 291 292 292 292 293 294 296
246 247 249 251 251 251 254 257 260 261 261 263 264 265 266 266 265 266 269 272 276 279 281 281 282 284 286 286 286 287 289 290 290 291 292 291 290 290 290 292 293 293 294 294
246 249 251 254 253 253 256 258 260 261 262 261 262 264 266 267 268 268 269 272 276 280 283 285 285 287 288 288 289 289 290 290 290 290 290 290 290 290 290 291 292 294 295 294
247 249 252 252 252 255 258 259 260 260 260 260 262 264 267 269 270 270 270 272 276 280 285 287 288 289 290 290 290 290 290 289 289 289 289 289 289 290 290 292 293 295 295 294
246 248 248 249 253 255 260 261 260 260 262 263 263 264 267 271 272 272 271 273 277 280 282 284 286 288 290 291 292 291 289 289 289 289 289 288 289 289 289 290 294 296 295 295
250 251 251 254 255 258 261 262 261 259 262 265 267 268 270 273 274 273 271 272 275 279 282 283 284 286 288 290 290 289 290 289 290 289 289 289 289 289 288 290 292 295 294 294
255 255 257 258 259 263 261 259 259 259 263 268 271 272 272 273 274 274 272 273 276 279 281 282 284 286 289 290 290 290 289 291 291 291 291 290 290 290 289 290 292 294 294 294
253 254 258 261 261 264 261 262 262 262 265 268 269 270 272 275 276 274 274 276 278 280 282 284 285 285 287 290 291 290 290 290 292 293 292 292 291 291 291 291 293 294 294 294
253 253 256 258 259 261 263 265 266 266 267 267 268 270 272 275 275 274 276 279 280 281 282 283 284 286 288 291 292 292 291 290 292 293 293 293 293 292 292 292 293 294 294 295
250 251 254 256 257 258 260 263 264 265 266 268 268 269 271 273 273 274 277 279 281 282 282 283 285 286 288 291 292 291 292 293 293 294 296 295 294 294 294 295 295 295 296 295
249 251 254 255 256 259 262 265 264 265 267 270 270 271 273 275 275 276 279 281 282 283 284 284 286 288 290 292 293 294 295 296 296 295 295 295 295 296 296 296 297 298 297 298
252 252 252 253 256 259 262 264 266 270 272 274 274 275 276 275 276 278 281 283 283 283 285 287 288 290 291 292 292 293 294 296 295 294 294 294 296 297 297 298 299 299 298 300
250 251 251 253 254 256 259 263 267 271 274 276 276 277 278 277 278 281 283 285 285 286 287 289 291 292 293 293 292 293 293 294 294 294 296 297 298 299 300 300 299 298 298 300
248 249 252 255 257 259 262 264 266 269 272 276 277 278 279 279 281 283 283 284 285 286 289 291 292 294 295 296 296 297 297 297 297 297 298 298 300 302 301 300 301 302 302 302
250 252 253 254 257 259 262 266 267 269 272 275 277 279 280 280 283 286 285 284 285 287 290 293 293 293 296 298 299 299 299 301 301 299 299 299 300 301 302 304 305 305 305 305
Height
5861 5863 5864 5865 5867 5868 5869 5870 5871 5872 5873 5873 5873 5873 5874 5874 5874 5874 5875 5874 5874 5873 5872 5871 5870 5870 5869 5867 5867 5866 5865 5864 5863 5862 5860 5858 5856 5854 5852 5849 5848 5846 5845 5844
5855 5857 5858 5860 5861 5863 5864 5865 5866 5867 5868 5868 5868 5868 5868 5869 5869 5869 5870 5870 5870 5869 5869 5868 5868 5867 5865 5863 5863 5862 5861 5859 5858 5857 5855 5853 5851 5849 5847 5845 5843 5841 5839 5838
5849 5852 5853 5854 5856 5858 5859 5860 5861 5862 5864 5863 5863 5863 5863 5864 5864 5864 5865 5866 5865 5865 5865 5864 5864 5863 5861 5860 5858 5857 5855 5855 5853 5851 5850 5848 5846 5844 5841 5839 5837 5836 5834 5833
5843 5846 5847 5851 5851 5852 5853 5855 5856 5856 5857 5858 5858 5859 5859 5860 5860 5860 5860 5861 5861 5861 5860 5859 5858 5858 5856 5855 5853 5852 5851 5850 5848 5846 5844 5842 5840 5838 5836 5834 5832 5830 5829 5827
5837 5838 5840 5843 5845 5846 5847 5848 5850 5850 5851 5852 5852 5854 5854 5855 5855 5855 5855 5855 5855 5855 5855 5854 5853 5852 5850 5849 5848 5847 5846 5844 5843 5841 5839 5837 5835 5833 5831 5829 5827 5825 5823 5821
5830 5832 5834 5838 5839 5840 5842 5842 5844 5844 5845 5846 5847 5848 5850 5850 5850 5849 5849 5849 5848 5848 5847 5847 5847 5846 5844 5843 5842 5841 5840 5839 5837 5836 5833 5831 5829 5827 5825 5823 5821 5819 5817 5815
5824 5825 5827 5830 5832 5834 5836 5837 5838 5838 5839 5840 5841 5842 5843 5843 5843 5843 5843 5843 5843 5842 5841 5841 5840 5839 5838 5837 5836 5835 5834 5833 5831 5830 5828 5826 5823 5821 5819 5817 5815 5813 5811 5809
5817 5818 5822 5824 5825 5827 5829 5830 5830 5831 5832 5833 5834 5834 5835 5836 5836 5837 5837 5837 5836 5835 5835 5834 5834 5833 5832 5831 5830 5828 5827 5826 5825 5823 5822 5820 5817 5814 5812 5810 5808 5806 5804 5801
5810 5813 5815 5816 5817 5819 5820 5822 5823 5824 5825 5826 5827 5828 5828 5828 5829 5830 5830 5830 5829 5828 5828 5827 5827 5827 5826 5825 5823 5822 5821 5819 5818 5816 5815 5813 5811 5808 5806 5803 5801 5799 5796 5794
5802 5804 5807 5808 5809 5811 5813 5814 5815 5817 5818 5819 5820 5820 5820 5821 5821 5821 5822 5822 5822 5821 5821 5820 5820 5819 5818 5817 5816 5815 5813 5812 5810 5809 5807 5806 5804 5801 5799 5796 5794 5792 5789 5787
5794 5797 5799 5800 5802 5803 5805 5806 5807 5808 5809 5811 5811 5813 5813 5814 5814 5813 5814 5815 5814 5813 5813 5812 5811 5811 5810 5810 5809 5807 5806 5804 5803 5801 5799 5798 5796 5794 5791 5789 5787 5785 5782 5780
5787 5790 5791 5793 5795 5795 5797 5799 5800 5801 5802 5802 5803 5804 5805 5806 5806 5806 5807 5807 5807 5806 5805 5804 5803 5802 5802 5802 5801 5799 5798 5796 5795 5793 5791 5789 5788 5786 5783 5782 5779 5777 5774 5772
5779 5781 5783 5785 5787 5788 5789 5790 5791 5793 5795 5795 5795 5796 5797 5797 5797 5798 5798 5798 5799 5799 5798 5797 5796 5794 5794 5794 5793 5791 5790 5788 5786 5784 5783 5781 5780 5778 5776 5774 5771 5769 5767 5764
5771 5773 5775 5777 5779 5780 5781 5782 5783 5784 5786 5787 5788 5788 5788 5789 5789 5790 5790 5791 5791 5791 5790 5789 5788 5787 5786 5785 5784 5782 5781 5780 5778 5776 5775 5773 5772 5770 5768 5766 5764 5761 5759 5757
5765 5767 5768 5770 5772 5773 5774 5775 5776 5777 5778 5779 5779 5779 5780 5781 5781 5782 5783 5783 5784 5783 5782 5781 5780 5779 5778 5777 5775 5774 5773 5772 5770 5768 5767 5765 5763 5761 5759 5757 5755 5753 5750 5748
5757 5759 5761 5763 5764 5765 5766 5767 5768 5769 5770 5771 5771 5772 5772 5773 5774 5774 5775 5776 5776 5775 5774 5773 5773 5772 5771 5769 5768 5766 5765 5763 5762 5760 5758 5757 5755 5753 5751 5749 5747 5744 5742 5740
5751 5752 5754 5755 5757 5758 5760 5760 5761 5761 5762 5763 5764 5765 5765 5766 5766 5767 5768 5768 5768 5768 5767 5766 5765 5764 5763 5761 5759 5757 5756 5754 5753 5751 5750 5748 5746 5744 5742 5740 5738 5736 5733 5731
5744 5746 5748 5749 5750 5752 5753 5754 5754 5755 5755 5756 5757 5757 5758 5759 5759 5760 5760 5760 5760 5760 5759 5758 5757 5756 5754 5753 5751 5749 5747 5745 5744 5743 5741 5739 5737 5735 5733 5731 5729 5727 5725 5723
5738 5740 5742 5743 5745 5746 5746 5747 5748 5749 5749 5750 5750 5751 5751 5752 5752 5752 5752 5753 5752 5752 5752 5751 5749 5748 5747 5745 5742 5740 5739 5737 5736 5734 5732 5730 5728 5726 5724 5722 5721 5719 5716 5714
5733 5735 5737 5738 5739 5740 5740 5741 5742 5743 5744 5743 5744 5745 5745 5745 5745 5745 5745 5745 5745 5744 5743 5742 5741 5740 5739 5737 5735 5733 5731 5730 5728 5726 5724 5722 5720 5718 5715 5713 5712 5710 5707 5705
5728 5730 5731 5732 5734 5734 5735 5736 5737 5737 5738 5738 5738 5738 5738 5738 5738 5738 5738 5738 5737 5736 5735 5735 5734 5732 5731 5729 5727 5725 5724 5722 5720 5718 5716 5714 5712 5709 5707 5705 5703 5701 5699 5697
5722 5725 5726 5727 5728 5729 5730 5730 5731 5731 5732 5732 5732 5732 5732 5732 5732 5731 5731 5731 5730 5729 5728 5727 5726 5725 5723 5722 5720 5718 5716 5714 5712 5710 5708 5706 5704 5701 5699 5697 5695 5693 5690 5688
5717 5719 5721 5722 5722 5723 5724 5725 5725 5725 5726 5726 5725 5725 5725 5725 5725 5725 5725 5724 5723 5723 5722 5720 5719 5717 5716 5714 5713 5711 5709 5707 5705 5703 5700 5698 5696 5694 5691 5689 5687 5684 5682 5680
5712 5713 5715 5716 5717 5718 5718 5719 5719 5719 5719 5719 5719 5719 5719 5719 5719 5718 5718 5717 5717 5716 5715 5714 5712 5711 5709 5708 5706 5704 5702 5700 5698 5695 5693 5691 5688 5686 5684 5681 5679 5676 5674 5671
5707 5708 5710 5711 5711 5712 5713 5713 5713 5714 5714 5713 5713 5713 5712 5712 5712 5712 5712 5711 5710 5709 5708 5707 5706 5704 5703 5701 5699 5697 5695 5693 5691 5689 5686 5684 5682 5679 5676 5674 5671 5668 5665 5662
5702 5703 5704 5705 5706 5706 5707 5708 5708 5708 5707 5707 5707 5707 5706 5706 5706 5706 5705 5705 5704 5703 5702 5701 5700 5698 5697 5695 5693 5691 5688 5686 5684 5682 5680 5677 5675 5672 5669 5666 5663 5660 5657 5654
5698 5699 5699 5700 5701 5701 5702 5702 5702 5703 5703 5702 5702 5701 5701 5701 5700 5700 5699 5699 5698 5697 5697 5695 5694 5692 5690 5689 5687 5684 5682 5680 5677 5675 5673 5670 5667 5665 5662 5659 5655 5652 5649 5646